JI1PZF-13 Weather Reports


time (UTC)temp
F
wind
direction
speed
knots
gust
knots
rain 1hr
in
rain 24hr
in
rain mn
in
humidity
%
barometer
mb
20260504184833 58 269 0.0 4.3 0.00 0.71 0.00 46 1016.6
20260504183402 58 325 0.0 2.6 0.00 0.71 0.00 47 1016.5
20260504181821 58 319 0.0 7.8 0.00 0.71 0.00 47 1016.0
20260504180326 58 240 0.0 4.3 0.00 0.71 0.00 48 1015.8
20260504174829 58 261 0.0 13.0 0.00 0.71 0.00 47 1015.4
20260504173356 58 300 0.0 11.3 0.00 0.71 0.00 47 1015.0
20260504171843 58 283 0.0 4.3 0.00 0.71 0.00 47 1014.6
20260504170321 58 284 0.0 3.5 0.00 0.71 0.00 46 1014.3
20260504160322 60 338 0.0 13.0 0.00 0.71 0.00 45 1013.1
20260504140320 64 339 0.0 5.2 0.00 0.71 0.14 46 1009.8
20260504130320 66 318 0.0 10.4 0.00 0.71 0.14 45 1008.5
20260504110324 72 306 0.0 1.7 0.00 0.71 0.14 53 1004.4
20260504100321 75 26 0.0 1.7 0.00 0.71 0.14 41 1002.4
20260504081836 77 196 0.0 1.7 0.00 0.71 0.14 36 999.0
20260504080320 77 223 0.0 2.6 0.00 0.71 0.14 41 998.4
20260504070339 78 114 0.0 5.2 0.00 0.71 0.14 48 996.9
20260504050327 80 189 0.0 4.3 0.00 0.71 0.14 53 996.4
20260504044835 80 212 0.0 0.9 0.00 0.71 0.14 52 996.5
20260504043325 82 157 0.0 12.2 0.00 0.71 0.14 49 996.5
20260504041831 83 134 0.0 13.9 0.00 0.71 0.14 46 996.4
20260504040339 83 224 0.0 4.3 0.00 0.71 0.14 47 996.6
20260504034819 83 267 0.9 7.8 0.00 0.71 0.14 50 996.6
20260504033328 83 194 0.0 13.0 0.00 0.71 0.14 49 996.9
20260504031837 84 243 0.0 13.9 0.00 0.71 0.14 47 996.7
20260504030323 84 96 0.0 6.1 0.00 0.71 0.14 48 996.8
20260504024829 83 217 0.0 10.4 0.00 0.71 0.14 51 996.9
20260504023335 83 137 0.0 1.7 0.00 0.71 0.14 52 997.0
20260504021838 82 202 0.9 11.3 0.00 0.71 0.14 54 997.1
20260504020340 81 246 0.0 4.3 0.00 0.71 0.14 57 997.4
20260504014900 80 268 0.0 0.9 0.00 0.71 0.14 63 997.9
20260504013320 78 94 0.0 0.0 0.00 0.71 0.14 66 998.0
20260504011846 78 313 0.0 0.0 0.00 0.71 0.14 66 998.2
20260504010331 79 36 0.0 0.9 0.00 0.71 0.14 64 998.1
20260504004834 80 123 0.0 0.0 0.00 0.71 0.14 67 998.4
20260504003335 79 204 0.0 1.7 0.00 0.71 0.14 69 998.8
20260504001834 78 219 0.0 0.9 0.00 0.71 0.14 72 998.6
20260504000336 76 192 0.0 0.0 0.00 0.71 0.14 76 998.7
20260503234838 75 294 0.0 0.9 0.00 0.71 0.14 79 998.8
20260503233320 75 252 0.0 0.0 0.00 0.71 0.14 81 999.0
20260503231827 74 227 0.0 0.9 0.00 0.71 0.14 82 998.5
20260503230335 74 163 0.0 0.0 0.00 0.71 0.14 85 999.0
20260503224834 73 104 0.0 0.0 0.00 0.71 0.14 86 999.0
20260503223319 73 137 0.0 3.5 0.00 0.71 0.14 87 999.0
20260503221824 73 17 0.0 0.9 0.00 0.71 0.14 88 999.0
20260503220329 73 234 0.0 1.7 0.04 0.71 0.14 90 998.9
20260503214852 72 215 0.0 0.0 0.04 0.71 0.14 91 998.4
20260503213336 71 148 0.0 0.9 0.08 0.71 0.14 92 998.4
20260503211841 71 201 0.0 0.9 0.24 0.71 0.14 92 998.1
20260503210320 71 96 0.0 10.4 0.31 0.67 0.13 91 998.1
20260503204825 71 186 1.7 13.9 0.35 0.67 0.13 91 997.9
20260503203328 71 154 0.0 10.4 0.31 0.63 0.13 92 997.9
20260503201832 71 237 0.0 19.1 0.16 0.47 0.09 92 998.3
20260503200331 70 242 0.0 1.7 0.04 0.35 0.07 92 999.0
20260503194830 70 131 0.0 0.0 0.04 0.31 0.06 92 999.2
20260503193335 69 127 0.0 7.8 0.08 0.31 0.06 92 999.5
20260503191844 69 114 0.0 0.9 0.20 0.31 0.06 92 999.5
20260503190319 68 240 0.0 3.5 0.31 0.31 0.06 92 1000.1